User: anonymous   Login
Location: Unspecified
(0.0000°N, 0.0000°E)
Time: 22:19:18
(UTC+00:00)
Language:

STARLINK-5791 - Orbit

View from above orbital plane
View from above orbital plane
View from above satellite
View from above satellite

Ground track
Ground track

The orbit is defined by the following mean orbital elements,

1 57146U          26145.44424220 +.00000000 +00000-0 +23887-4 0 00008
2 57146  43.0031 189.7261 0001849 278.0596  82.0046 15.27577421    00
Epoch (UTC): 25 May 2026 10:39:42
Eccentricity: 0.0001849
inclination: 43.0031°
perigee height: 482 km
apogee height: 484 km
right ascension of ascending node: 189.7261°
argument of perigee: 278.0596°
revolutions per day: 15.27577421
mean anomaly at epoch: 82.0046°

The dashed part of the orbit path shows where the satellite is in the earth's shadow,  

DLR